Location: ???????
(55.5931°N, 39.3286°E)
Time: 13:40:16
(UTC+00:00)

CZ-2D R/B - Pass Details

Date: 14 April 2024
Orbit: 791 x 842 km, 98.8° (Epoch: 27 May)

Event Time Altitude Azimuth Distance (km) Brightness Sun altitude
Rises 00:53:24 0° 13° (NNE) 3,338 6.2 -11.6°
Reaches altitude 10° 00:55:54 10° 4° (N) 2,410 5.2 -11.4°
Maximum altitude 01:00:37 33° 302° (WNW) 1,346 3.1 -10.8°
Enters shadow 01:04:43 13° 243° (WSW) 2,205 3.7 -10.3°
